sat.trackr.live / text

‹ back to catalog

SHIYAN-10 01 (SY-10 01)

NORAD 49258 · 2021-087A

PAYLOAD ACTIVE UNKNOWN

§ Identity

Operator
Country
PRC
Launch date
2021-09-27
Launch site
XICLF
Launch vehicle
Mass (kg)
RCS (m²)

External: N2YO · Heavens-Above · Gunter

§ Orbital elements

Epoch: 2026-09-08T03:38:05.568576Z

Period
717.90 min
Inclination
63.1333°
Eccentricity
0.6887757
Mean motion
2.00586279 rev/d
Perigee alt
1,887.5 km
Apogee alt
38,473.0 km
Semi-major
26,558.3 km
B*
0.0000e+0
RAAN
210.6642°
Arg perigee
269.7346°
Mean anomaly
17.9503°
Rev number
3,619

§ Raw data

SHIYAN-10 01 (SY-10 01)1 49258U 21087A   26251.15145334  .00000650  00000+0  00000+0 0  99972 49258  63.1333 210.6642 6887757 269.7346  17.9503  2.00586279 36198

JSON: /api/v1/satellites/49258 · /tle

For live sub-satellite position, see the globe view (requires WebGL).

§ Visibility from observer

Set your observer location to see the next 7 days of passes ≥ 10°. The values pass through the URL so the page stays shareable.

No JS? Fill the form by hand. The geolocation button needs JavaScript.